This is the latest recevied weather packets stored in our database for station/object VE6EN. If no packets are shown the sender has not sent any weather packets the latest 10 day(s).
| Time | Temp. | Humidity | Pressure | Rain* | Wind** | Luminosity | Snow |
|---|---|---|---|---|---|---|---|
| 1787433604 | 26.11° C | 39% | 1014.6 hPa | 0 mm | - | - | - |
| 1787433003 | 25.56° C | 41% | 1014.7 hPa | 0 mm | - | - | - |
| 1787432403 | 25.56° C | 39% | 1014.9 hPa | 0 mm | - | - | - |
| 1787431804 | 25.56° C | 46% | 1015 hPa | 0 mm | - | - | - |
| 1787431200 | 25.56° C | 47% | 1015.2 hPa | 0 mm | - | - | - |
| 1787430604 | 24.44° C | 49% | 1015.4 hPa | 0 mm | - | - | - |
| 1787430003 | 23.89° C | 49% | 1015.4 hPa | 0 mm | - | - | - |
| 1787429404 | 22.78° C | 55% | 1015.5 hPa | 0 mm | - | - | - |
| 1787428804 | 22.22° C | 59% | 1015.6 hPa | 0 mm | - | - | - |
| 1787428205 | 21.11° C | 64% | 1015.8 hPa | 0 mm | - | - | - |
| 1787427603 | 20.56° C | 65% | 1016.1 hPa | 0 mm | - | - | - |
| 1787427004 | 20° C | 68% | 1016.2 hPa | 0 mm | - | - | - |
| 1787426403 | 19.44° C | 68% | 1016.4 hPa | 0 mm | - | - | - |
| 1787425804 | 19.44° C | 70% | 1016.4 hPa | 0 mm | - | - | - |
| 1787425203 | 18.89° C | 68% | 1016.6 hPa | 0 mm | - | - | - |
| 1787424602 | 18.33° C | 69% | 1016.6 hPa | 0 mm | - | - | - |
| 1787424003 | 18.33° C | 69% | 1016.9 hPa | 0 mm | - | - | - |
| 1787423403 | 18.33° C | 71% | 1017 hPa | 0 mm | - | - | - |
| 1787422803 | 18.33° C | 70% | 1017 hPa | 0 mm | - | - | - |
| 1787422203 | 18.33° C | 68% | 1017 hPa | 0 mm | - | - | - |
| 1787421604 | 18.33° C | 68% | 1017.1 hPa | 0 mm | - | - | - |
| 1787421003 | 18.89° C | 68% | 1017.1 hPa | 0 mm | - | - | - |
| 1787420404 | 18.89° C | 65% | 1016.9 hPa | 0 mm | - | - | - |
| 1787419804 | 18.89° C | 64% | 1016.9 hPa | 0 mm | - | - | - |
| 1787419204 | 18.33° C | 62% | 1016.8 hPa | 0 mm | - | - | - |
* Rain latest hour (hover to see other rain measurements)
** Current wind speed in m/s (hover to see current wind gust speed)